Search for airport 
image banner adimage banner ad
image banner ad

ESNA - Hallviken

Located in , Sweden

ICAO - ESNA, IATA -

Data provided by Airmate  

General information

Coordinates: N63°44'18" E15°27'32"
Elevation is 1119 feet MSL.
 
View others Airports in Jämtlande län

Operational data

Open for public use
Current time UTC:
Current local time:
Weather at : ESNZ - Are Ostersund ( 77 km )
METAR: ESNZ 241720Z AUTO 00000KT 9999 FEW025/// M11/M11 Q0995
TAF: TAF ESNZ 241130Z 2412/2414 VRB02KT 9999 SCT010 BKN015 TEMPO 2412/2414 2000 -SN BKN008
View NOTAMs / SUP AIP / TFR affecting this airport [VIEW]
Communications frequencies: [VIEW]

Runways:

RWY identifierQFULength (ft)Width (ft)SurfaceLDA (ft)
14328166ASPH
32328166ASPH

Airport contact information

Address: Sweden

Satellite view of ESNA